Time,TemperatureF,DewpointF,PressureIn,WindDirection,WindDirectionDegrees,WindSpeedMPH,WindSpeedGustMPH,Humidity,HourlyPrecipIn,Conditions,Clouds,dailyrainin,SoftwareType,DateUTC
2013-03-05 00:02:00,25.0,21.9,30.03,East,90,0.9,2.2,88,0.00,,---,0.00,VWS V14.01,2013-03-05 06:02:00,
2013-03-05 00:07:00,25.0,21.9,30.03,ESE,112,0.0,2.7,88,0.00,,---,0.00,VWS V14.01,2013-03-05 06:07:00,
2013-03-05 00:12:00,25.0,21.9,30.00,ESE,112,1.1,1.3,88,0.00,,---,0.00,VWS V14.01,2013-03-05 06:12:00,
2013-03-05 00:17:00,25.0,21.9,30.00,ESE,112,0.0,2.0,88,0.00,,---,0.00,VWS V14.01,2013-03-05 06:17:00,
2013-03-05 00:23:00,25.0,22.2,30.00,ESE,112,1.6,1.6,89,0.00,,---,0.00,VWS V14.01,2013-03-05 06:23:00,
2013-03-05 00:28:00,25.0,22.2,30.00,ESE,112,0.0,1.3,89,0.00,,---,0.00,VWS V14.01,2013-03-05 06:28:00,
2013-03-05 00:33:00,25.0,21.9,30.00,ESE,112,0.0,0.9,88,0.00,,---,0.00,VWS V14.01,2013-03-05 06:33:00,
2013-03-05 00:38:00,24.8,22.0,30.00,ESE,112,0.0,1.3,89,0.00,,---,0.00,VWS V14.01,2013-03-05 06:38:00,
2013-03-05 00:43:00,24.8,22.0,30.00,NE,45,0.9,3.4,89,0.00,,---,0.00,VWS V14.01,2013-03-05 06:43:00,
2013-03-05 00:48:00,24.8,22.0,30.00,ENE,68,1.3,1.3,89,0.00,,---,0.00,VWS V14.01,2013-03-05 06:48:00,
2013-03-05 00:54:00,24.8,22.0,30.00,ESE,112,0.0,2.0,89,0.00,,---,0.00,VWS V14.01,2013-03-05 06:54:00,
2013-03-05 00:59:00,24.8,22.0,30.00,ENE,68,1.1,2.5,89,0.00,,---,0.00,VWS V14.01,2013-03-05 06:59:00,
2013-03-05 01:04:00,24.8,22.3,30.00,SE,135,0.0,2.0,90,0.00,,---,0.00,VWS V14.01,2013-03-05 07:04:00,
2013-03-05 01:09:00,24.8,22.3,30.00,ENE,68,0.0,2.0,90,0.00,,---,0.00,VWS V14.01,2013-03-05 07:09:00,
2013-03-05 01:15:00,24.8,22.3,30.00,SE,135,1.1,2.2,90,0.00,,---,0.00,VWS V14.01,2013-03-05 07:15:00,
2013-03-05 01:20:00,24.8,22.3,30.00,SE,135,0.0,1.1,90,0.00,,---,0.00,VWS V14.01,2013-03-05 07:20:00,
2013-03-05 01:25:00,24.8,22.0,30.00,ESE,112,1.6,4.3,89,0.00,,---,0.00,VWS V14.01,2013-03-05 07:25:00,
2013-03-05 01:32:00,24.8,22.0,30.00,ESE,112,0.0,1.1,89,0.00,,---,0.00,VWS V14.01,2013-03-05 07:32:00,
2013-03-05 01:37:00,24.8,22.0,30.00,East,90,0.0,0.0,89,0.00,,---,0.00,VWS V14.01,2013-03-05 07:37:00,
2013-03-05 01:43:00,24.8,22.0,30.00,SE,135,0.9,2.7,89,0.00,,---,0.00,VWS V14.01,2013-03-05 07:43:00,
2013-03-05 01:48:00,24.8,22.0,30.00,ESE,112,0.0,0.0,89,0.00,,---,0.00,VWS V14.01,2013-03-05 07:48:00,
2013-03-05 01:53:00,24.8,22.0,30.00,ESE,112,0.0,2.0,89,0.00,,---,0.00,VWS V14.01,2013-03-05 07:53:00,
2013-03-05 01:58:00,24.8,22.0,30.00,ESE,112,0.0,1.3,89,0.00,,---,0.00,VWS V14.01,2013-03-05 07:58:00,
2013-03-05 02:04:00,24.8,22.0,30.00,SE,135,2.2,3.6,89,0.00,,---,0.00,VWS V14.01,2013-03-05 08:04:00,
2013-03-05 02:09:00,24.8,22.0,30.00,ESE,112,0.0,0.0,89,0.00,,---,0.00,VWS V14.01,2013-03-05 08:09:00,
2013-03-05 02:14:00,24.6,21.9,30.00,ESE,112,1.6,1.6,89,0.00,,---,0.00,VWS V14.01,2013-03-05 08:14:00,
2013-03-05 02:20:00,24.6,21.9,30.00,ESE,112,1.1,2.0,89,0.00,,---,0.00,VWS V14.01,2013-03-05 08:20:00,
2013-03-05 02:25:00,24.6,21.9,30.00,ESE,112,0.9,3.4,89,0.00,,---,0.00,VWS V14.01,2013-03-05 08:25:00,
2013-03-05 02:31:00,24.6,21.9,30.00,ESE,112,2.0,2.0,89,0.00,,---,0.00,VWS V14.01,2013-03-05 08:31:00,
2013-03-05 02:36:00,24.6,21.9,30.00,ESE,112,0.0,0.0,89,0.00,,---,0.00,VWS V14.01,2013-03-05 08:36:00,
2013-03-05 02:41:00,24.6,21.9,30.00,ESE,112,1.6,1.6,89,0.00,,---,0.00,VWS V14.01,2013-03-05 08:41:00,
2013-03-05 02:46:00,24.6,21.9,30.00,ESE,112,2.0,2.0,89,0.00,,---,0.00,VWS V14.01,2013-03-05 08:46:00,
2013-03-05 02:51:00,24.4,21.7,30.00,ESE,112,1.6,1.6,89,0.00,,---,0.00,VWS V14.01,2013-03-05 08:51:00,
2013-03-05 02:56:00,24.4,21.7,30.00,ESE,112,1.1,3.1,89,0.00,,---,0.00,VWS V14.01,2013-03-05 08:56:00,
2013-03-05 03:02:00,24.4,21.9,30.00,ESE,112,1.3,2.0,90,0.00,,---,0.00,VWS V14.01,2013-03-05 09:02:00,
2013-03-05 03:07:00,24.4,21.9,30.00,ESE,112,0.0,2.2,90,0.00,,---,0.00,VWS V14.01,2013-03-05 09:07:00,
2013-03-05 03:13:00,24.4,21.9,30.00,ESE,112,0.9,1.3,90,0.00,,---,0.00,VWS V14.01,2013-03-05 09:13:00,
2013-03-05 06:29:00,23.9,21.7,30.00,ESE,112,0.9,0.9,91,0.00,,---,0.00,VWS V14.01,2013-03-05 12:29:00,
2013-03-05 06:35:00,23.9,21.7,30.00,ESE,112,0.0,0.9,91,0.00,,---,0.00,VWS V14.01,2013-03-05 12:35:00,
2013-03-05 06:40:00,23.9,21.7,30.00,ESE,112,0.0,1.6,91,0.00,,---,0.00,VWS V14.01,2013-03-05 12:40:00,
2013-03-05 06:45:00,23.9,21.7,30.00,ESE,112,0.0,0.0,91,0.00,,---,0.00,VWS V14.01,2013-03-05 12:45:00,
2013-03-05 06:50:00,23.9,21.7,30.00,ESE,112,2.0,2.5,91,0.00,,---,0.00,VWS V14.01,2013-03-05 12:50:00,
2013-03-05 06:55:00,23.9,21.7,30.00,ESE,112,1.1,1.6,91,0.00,,---,0.00,VWS V14.01,2013-03-05 12:55:00,
2013-03-05 07:00:00,23.9,21.7,30.00,ESE,112,2.5,3.1,91,0.00,,---,0.00,VWS V14.01,2013-03-05 13:00:00,
2013-03-05 07:05:00,23.9,21.7,30.00,ESE,112,0.0,0.0,91,0.00,,---,0.00,VWS V14.01,2013-03-05 13:05:00,
2013-03-05 07:10:00,23.9,21.7,30.00,ESE,112,0.0,0.0,91,0.00,,---,0.00,VWS V14.01,2013-03-05 13:10:00,
2013-03-05 07:15:00,23.9,21.7,30.00,ESE,112,0.0,2.0,91,0.00,,---,0.00,VWS V14.01,2013-03-05 13:15:00,
2013-03-05 07:20:00,24.1,21.8,30.00,ESE,112,0.0,0.0,91,0.00,,---,0.00,VWS V14.01,2013-03-05 13:20:00,
2013-03-05 07:26:00,24.1,21.8,30.00,ESE,112,0.0,2.2,91,0.00,,---,0.00,VWS V14.01,2013-03-05 13:26:00,
2013-03-05 07:31:00,24.3,22.0,30.00,ESE,112,2.0,2.9,91,0.00,,---,0.00,VWS V14.01,2013-03-05 13:31:00,
2013-03-05 07:36:00,24.3,22.0,30.00,ESE,112,0.0,1.6,91,0.00,,---,0.00,VWS V14.01,2013-03-05 13:36:00,
2013-03-05 07:41:00,24.3,22.0,30.00,ESE,112,1.3,2.0,91,0.00,,---,0.00,VWS V14.01,2013-03-05 13:41:00,
2013-03-05 07:46:00,24.4,22.2,30.00,ESE,112,1.3,2.7,91,0.00,,---,0.00,VWS V14.01,2013-03-05 13:46:00,
2013-03-05 07:52:00,24.4,22.2,30.00,ESE,112,1.3,1.3,91,0.00,,---,0.00,VWS V14.01,2013-03-05 13:52:00,
2013-03-05 07:58:00,24.4,22.2,30.03,ESE,112,0.0,3.6,91,0.00,,---,0.00,VWS V14.01,2013-03-05 13:58:00,
2013-03-05 08:03:00,24.6,22.1,30.03,ESE,112,1.1,2.5,90,0.00,,---,0.00,VWS V14.01,2013-03-05 14:03:00,
2013-03-05 08:08:00,24.8,22.3,30.03,ESE,112,2.2,2.2,90,0.00,,---,0.00,VWS V14.01,2013-03-05 14:08:00,
2013-03-05 08:14:00,25.0,22.5,30.03,ESE,112,0.0,1.6,90,0.00,,---,0.00,VWS V14.01,2013-03-05 14:14:00,
2013-03-05 08:19:00,25.0,22.2,30.03,ESE,112,1.1,1.6,89,0.00,,---,0.00,VWS V14.01,2013-03-05 14:19:00,
2013-03-05 08:24:00,25.2,22.4,30.03,ESE,112,1.1,2.0,89,0.00,,---,0.00,VWS V14.01,2013-03-05 14:24:00,
2013-03-05 08:29:00,25.2,22.4,30.03,ESE,112,0.0,0.0,89,0.00,,---,0.00,VWS V14.01,2013-03-05 14:29:00,
2013-03-05 08:35:00,25.3,22.6,30.03,ESE,112,2.2,2.2,89,0.00,,---,0.00,VWS V14.01,2013-03-05 14:35:00,
2013-03-05 08:40:00,25.5,22.7,30.03,ESE,112,0.9,2.0,89,0.00,,---,0.00,VWS V14.01,2013-03-05 14:40:00,
2013-03-05 08:45:00,25.7,22.6,30.03,ESE,112,3.4,4.0,88,0.00,,---,0.00,VWS V14.01,2013-03-05 14:45:00,
2013-03-05 08:51:00,26.1,23.0,30.03,ESE,112,2.0,2.5,88,0.00,,---,0.00,VWS V14.01,2013-03-05 14:51:00,
2013-03-05 08:56:00,26.2,23.2,30.06,ESE,112,2.5,3.6,88,0.00,,---,0.00,VWS V14.01,2013-03-05 14:56:00,
2013-03-05 09:01:00,26.2,22.9,30.06,ESE,112,2.7,3.1,87,0.00,,---,0.00,VWS V14.01,2013-03-05 15:01:00,
2013-03-05 09:06:00,26.4,22.8,30.06,ESE,112,0.9,2.0,86,0.00,,---,0.00,VWS V14.01,2013-03-05 15:06:00,
2013-03-05 09:11:00,26.6,23.0,30.03,ESE,112,2.7,3.1,86,0.00,,---,0.00,VWS V14.01,2013-03-05 15:11:00,
2013-03-05 09:17:00,26.8,22.9,30.03,ESE,112,1.6,3.4,85,0.00,,---,0.00,VWS V14.01,2013-03-05 15:17:00,
2013-03-05 09:22:00,26.8,22.6,30.03,ESE,112,2.0,3.1,84,0.00,,---,0.00,VWS V14.01,2013-03-05 15:22:00,
2013-03-05 09:27:00,27.0,22.5,30.06,NE,45,2.9,2.9,83,0.00,,---,0.00,VWS V14.01,2013-03-05 15:27:00,
2013-03-05 09:32:00,27.1,22.4,30.06,ENE,68,3.8,3.8,82,0.00,,---,0.00,VWS V14.01,2013-03-05 15:32:00,
2013-03-05 09:38:00,27.3,22.6,30.06,ENE,68,2.7,3.6,82,0.00,,---,0.00,VWS V14.01,2013-03-05 15:38:00,
2013-03-05 09:43:00,27.5,22.5,30.03,ENE,68,1.3,3.6,81,0.00,,---,0.00,VWS V14.01,2013-03-05 15:43:00,
2013-03-05 09:48:00,27.7,22.3,30.03,East,90,2.9,4.3,80,0.00,,---,0.00,VWS V14.01,2013-03-05 15:48:00,
2013-03-05 09:53:00,27.9,22.5,30.03,ENE,68,2.7,3.1,80,0.00,,---,0.00,VWS V14.01,2013-03-05 15:53:00,
2013-03-05 09:59:00,27.7,22.0,30.06,NE,45,3.6,3.6,79,0.00,,---,0.00,VWS V14.01,2013-03-05 15:59:00,
2013-03-05 10:04:00,27.9,21.9,30.06,East,90,5.4,5.4,78,0.00,,---,0.00,VWS V14.01,2013-03-05 16:04:00,
2013-03-05 10:09:00,27.9,21.9,30.06,ENE,68,2.7,2.9,78,0.00,,---,0.00,VWS V14.01,2013-03-05 16:09:00,
2013-03-05 10:14:00,28.2,22.2,30.06,NNE,22,4.9,5.8,78,0.00,,---,0.00,VWS V14.01,2013-03-05 16:14:00,
2013-03-05 10:20:00,28.4,22.1,30.06,ENE,68,1.3,2.0,77,0.00,,---,0.00,VWS V14.01,2013-03-05 16:20:00,
2013-03-05 10:25:00,28.0,21.5,30.06,East,90,2.0,3.6,76,0.00,,---,0.00,VWS V14.01,2013-03-05 16:25:00,
2013-03-05 10:30:00,28.2,21.6,30.06,NNE,22,3.1,3.1,76,0.00,,---,0.00,VWS V14.01,2013-03-05 16:30:00,
2013-03-05 10:35:00,28.2,21.6,30.06,East,90,2.5,4.3,76,0.00,,---,0.00,VWS V14.01,2013-03-05 16:35:00,
2013-03-05 10:41:00,28.6,21.7,30.06,NNE,22,2.0,2.7,75,0.00,,---,0.00,VWS V14.01,2013-03-05 16:41:00,
2013-03-05 10:46:00,28.4,21.5,30.06,NNW,338,2.0,3.1,75,0.00,,---,0.00,VWS V14.01,2013-03-05 16:46:00,
2013-03-05 10:51:00,28.4,21.2,30.06,ENE,68,3.6,3.6,74,0.00,,---,0.00,VWS V14.01,2013-03-05 16:51:00,
2013-03-05 10:57:00,28.2,21.0,30.06,ENE,68,2.7,4.0,74,0.00,,---,0.00,VWS V14.01,2013-03-05 16:57:00,
2013-03-05 11:02:00,28.6,21.4,30.06,ENE,68,2.9,2.9,74,0.00,,---,0.00,VWS V14.01,2013-03-05 17:02:00,
2013-03-05 11:07:00,28.9,22.0,30.06,ENE,68,2.2,3.1,75,0.00,,---,0.00,VWS V14.01,2013-03-05 17:07:00,
2013-03-05 11:13:00,28.9,22.0,30.06,ESE,112,1.3,4.0,75,0.00,,---,0.00,VWS V14.01,2013-03-05 17:13:00,
2013-03-05 11:18:00,29.1,22.2,30.06,WNW,292,2.7,2.7,75,0.00,,---,0.00,VWS V14.01,2013-03-05 17:18:00,
2013-03-05 11:23:00,28.9,21.7,30.06,NE,45,2.0,2.2,74,0.00,,---,0.00,VWS V14.01,2013-03-05 17:23:00,
2013-03-05 11:29:00,29.1,22.2,30.06,ENE,68,2.0,2.7,75,0.00,,---,0.00,VWS V14.01,2013-03-05 17:29:00,
2013-03-05 11:34:00,29.3,22.1,30.06,ENE,68,1.1,2.5,74,0.00,,---,0.00,VWS V14.01,2013-03-05 17:34:00,
2013-03-05 11:39:00,29.5,22.2,30.06,East,90,3.8,3.8,74,0.00,,---,0.00,VWS V14.01,2013-03-05 17:39:00,
2013-03-05 11:44:00,29.7,22.4,30.06,East,90,1.3,2.5,74,0.00,,---,0.00,VWS V14.01,2013-03-05 17:44:00,
2013-03-05 11:50:00,29.7,22.4,30.06,NE,45,2.0,2.7,74,0.00,,---,0.00,VWS V14.01,2013-03-05 17:50:00,
2013-03-05 11:55:00,30.2,22.9,30.06,NW,315,2.5,2.5,74,0.00,,---,0.00,VWS V14.01,2013-03-05 17:55:00,
2013-03-05 12:00:00,30.4,22.8,30.09,ENE,68,1.1,6.3,73,0.00,,---,0.00,VWS V14.01,2013-03-05 18:00:00,
2013-03-05 12:05:00,30.9,23.3,30.09,NE,45,2.5,3.8,73,0.00,,---,0.00,VWS V14.01,2013-03-05 18:05:00,
2013-03-05 12:10:00,31.1,23.5,30.09,North,0,2.0,3.4,73,0.00,,---,0.00,VWS V14.01,2013-03-05 18:10:00,
2013-03-05 12:16:00,31.6,23.7,30.09,NNE,22,0.0,1.3,72,0.00,,---,0.00,VWS V14.01,2013-03-05 18:16:00,
2013-03-05 12:21:00,31.3,22.6,30.09,ENE,68,1.6,2.2,70,0.00,,---,0.00,VWS V14.01,2013-03-05 18:21:00,
2013-03-05 12:27:00,31.6,23.3,30.09,NNE,22,1.1,2.5,71,0.00,,---,0.00,VWS V14.01,2013-03-05 18:27:00,
2013-03-05 12:32:00,31.8,23.5,30.09,North,0,1.6,1.6,71,0.00,,---,0.00,VWS V14.01,2013-03-05 18:32:00,
2013-03-05 12:38:00,32.0,23.3,30.09,NNW,338,2.9,2.9,70,0.00,,---,0.00,VWS V14.01,2013-03-05 18:38:00,
2013-03-05 12:43:00,31.8,22.8,30.09,East,90,2.9,2.9,69,0.00,,---,0.00,VWS V14.01,2013-03-05 18:43:00,
2013-03-05 12:48:00,32.4,23.7,30.09,NE,45,2.5,4.3,70,0.00,,---,0.00,VWS V14.01,2013-03-05 18:48:00,
2013-03-05 12:53:00,32.7,24.0,30.09,NW,315,1.3,2.5,70,0.00,,---,0.00,VWS V14.01,2013-03-05 18:53:00,
2013-03-05 12:58:00,32.5,23.2,30.09,ENE,68,0.0,3.6,68,0.00,,---,0.00,VWS V14.01,2013-03-05 18:58:00,
2013-03-05 13:03:00,32.5,23.2,30.09,NNW,338,1.1,3.1,68,0.00,,---,0.00,VWS V14.01,2013-03-05 19:03:00,
2013-03-05 13:09:00,32.7,23.3,30.09,NNW,338,3.8,4.7,68,0.00,,---,0.00,VWS V14.01,2013-03-05 19:09:00,
2013-03-05 13:15:00,32.7,23.3,30.09,ENE,68,4.3,4.3,68,0.00,,---,0.00,VWS V14.01,2013-03-05 19:15:00,
2013-03-05 13:20:00,32.7,23.0,30.09,ENE,68,2.9,4.9,67,0.00,,---,0.00,VWS V14.01,2013-03-05 19:20:00,
2013-03-05 13:26:00,32.7,22.6,30.09,NNW,338,3.4,7.6,66,0.00,,---,0.00,VWS V14.01,2013-03-05 19:26:00,
2013-03-05 13:31:00,32.9,22.8,30.09,NE,45,2.9,3.8,66,0.00,,---,0.00,VWS V14.01,2013-03-05 19:31:00,
2013-03-05 13:36:00,33.1,23.0,30.09,NE,45,2.9,4.3,66,0.00,,---,0.00,VWS V14.01,2013-03-05 19:36:00,
2013-03-05 13:41:00,33.6,23.9,30.09,ENE,68,1.3,2.9,67,0.00,,---,0.00,VWS V14.01,2013-03-05 19:41:00,
2013-03-05 13:47:00,33.6,23.5,30.09,NE,45,4.9,6.0,66,0.00,,---,0.00,VWS V14.01,2013-03-05 19:47:00,
2013-03-05 13:52:00,33.6,23.1,30.09,ENE,68,2.0,3.6,65,0.00,,---,0.00,VWS V14.01,2013-03-05 19:52:00,
2013-03-05 13:58:00,33.3,22.8,30.09,NNW,338,4.0,4.0,65,0.00,,---,0.00,VWS V14.01,2013-03-05 19:58:00,
2013-03-05 14:03:00,33.1,22.6,30.09,North,0,2.5,3.6,65,0.00,,---,0.00,VWS V14.01,2013-03-05 20:03:00,
2013-03-05 14:08:00,33.1,22.6,30.09,NE,45,2.0,3.4,65,0.00,,---,0.00,VWS V14.01,2013-03-05 20:08:00,
2013-03-05 14:13:00,32.9,22.4,30.09,NNW,338,2.9,4.7,65,0.00,,---,0.00,VWS V14.01,2013-03-05 20:13:00,
2013-03-05 14:19:00,32.9,22.4,30.09,North,0,6.3,6.3,65,0.00,,---,0.00,VWS V14.01,2013-03-05 20:19:00,
2013-03-05 14:24:00,32.7,21.9,30.09,ENE,68,5.4,5.4,64,0.00,,---,0.00,VWS V14.01,2013-03-05 20:24:00,
2013-03-05 14:30:00,32.7,22.3,30.09,ENE,68,2.9,3.8,65,0.00,,---,0.00,VWS V14.01,2013-03-05 20:30:00,
2013-03-05 14:35:00,32.5,22.1,30.09,NNW,338,3.6,4.9,65,0.00,,---,0.00,VWS V14.01,2013-03-05 20:35:00,
2013-03-05 14:40:00,32.7,21.9,30.09,East,90,7.2,7.2,64,0.00,,---,0.00,VWS V14.01,2013-03-05 20:40:00,
2013-03-05 14:45:00,32.7,21.5,30.09,NE,45,2.9,5.8,63,0.00,,---,0.00,VWS V14.01,2013-03-05 20:45:00,
2013-03-05 14:50:00,32.7,21.5,30.09,ENE,68,1.6,3.8,63,0.00,,---,0.00,VWS V14.01,2013-03-05 20:50:00,
2013-03-05 14:55:00,32.7,21.5,30.09,NNE,22,3.4,3.8,63,0.00,,---,0.00,VWS V14.01,2013-03-05 20:55:00,
2013-03-05 15:01:00,32.7,21.5,30.12,NNE,22,4.7,6.5,63,0.00,,---,0.00,VWS V14.01,2013-03-05 21:01:00,
2013-03-05 15:06:00,32.2,20.3,30.12,SSE,158,3.4,4.0,61,0.00,,---,0.00,VWS V14.01,2013-03-05 21:06:00,
2013-03-05 15:11:00,32.2,20.6,30.12,NW,315,2.0,5.4,62,0.00,,---,0.00,VWS V14.01,2013-03-05 21:11:00,
2013-03-05 15:16:00,32.4,20.4,30.12,NNW,338,3.1,3.6,61,0.00,,---,0.00,VWS V14.01,2013-03-05 21:16:00,
2013-03-05 15:21:00,32.7,20.8,30.12,SE,135,2.9,2.9,61,0.00,,---,0.00,VWS V14.01,2013-03-05 21:21:00,
2013-03-05 15:26:00,32.9,20.5,30.12,NNW,338,5.4,5.4,60,0.00,,---,0.00,VWS V14.01,2013-03-05 21:26:00,
2013-03-05 15:31:00,32.5,19.8,30.12,North,0,0.9,4.0,59,0.00,,---,0.00,VWS V14.01,2013-03-05 21:31:00,
2013-03-05 15:36:00,33.1,20.7,30.12,ENE,68,3.8,3.8,60,0.00,,---,0.00,VWS V14.01,2013-03-05 21:36:00,
2013-03-05 15:41:00,32.9,20.5,30.12,NNW,338,1.6,3.6,60,0.00,,---,0.00,VWS V14.01,2013-03-05 21:41:00,
2013-03-05 15:46:00,31.8,19.5,30.12,ESE,112,3.4,3.4,60,0.00,,---,0.00,VWS V14.01,2013-03-05 21:46:00,
2013-03-05 15:51:00,31.1,18.9,30.12,NW,315,1.3,4.0,60,0.00,,---,0.00,VWS V14.01,2013-03-05 21:51:00,
2013-03-05 15:56:00,30.7,18.9,30.15,NW,315,4.7,4.7,61,0.00,,---,0.00,VWS V14.01,2013-03-05 21:56:00,
2013-03-05 16:01:00,30.2,18.4,30.15,North,0,3.1,4.9,61,0.00,,---,0.00,VWS V14.01,2013-03-05 22:01:00,
2013-03-05 16:06:00,30.0,18.2,30.15,NNE,22,4.0,5.6,61,0.00,,---,0.00,VWS V14.01,2013-03-05 22:06:00,
2013-03-05 16:11:00,30.0,18.2,30.15,NW,315,2.7,2.7,61,0.00,,---,0.00,VWS V14.01,2013-03-05 22:11:00,
2013-03-05 16:16:00,30.0,18.2,30.15,NE,45,2.2,2.5,61,0.00,,---,0.00,VWS V14.01,2013-03-05 22:16:00,
2013-03-05 16:22:00,30.0,18.2,30.15,SE,135,1.1,3.8,61,0.00,,---,0.00,VWS V14.01,2013-03-05 22:22:00,
2013-03-05 16:28:00,30.0,18.2,30.15,NNE,22,2.7,3.8,61,0.00,,---,0.00,VWS V14.01,2013-03-05 22:28:00,
2013-03-05 16:33:00,30.4,19.3,30.15,North,0,3.1,6.3,63,0.00,,---,0.00,VWS V14.01,2013-03-05 22:33:00,
2013-03-05 16:38:00,30.4,19.3,30.15,NNW,338,3.1,3.6,63,0.00,,---,0.00,VWS V14.01,2013-03-05 22:38:00,
2013-03-05 16:44:00,30.6,19.5,30.15,North,0,1.6,4.0,63,0.00,,---,0.00,VWS V14.01,2013-03-05 22:44:00,
2013-03-05 16:49:00,30.7,19.6,30.15,NNE,22,2.5,6.0,63,0.00,,---,0.00,VWS V14.01,2013-03-05 22:49:00,
2013-03-05 16:54:00,30.7,19.6,30.15,WNW,292,2.5,6.0,63,0.00,,---,0.00,VWS V14.01,2013-03-05 22:54:00,
2013-03-05 17:00:00,30.6,19.5,30.18,NNW,338,5.6,5.6,63,0.00,,---,0.00,VWS V14.01,2013-03-05 23:00:00,
2013-03-05 17:05:00,30.4,19.3,30.18,North,0,2.5,3.1,63,0.00,,---,0.00,VWS V14.01,2013-03-05 23:05:00,
2013-03-05 17:11:00,30.2,19.5,30.18,North,0,1.6,4.9,64,0.00,,---,0.00,VWS V14.01,2013-03-05 23:11:00,
2013-03-05 17:17:00,29.5,19.2,30.18,NW,315,2.0,3.4,65,0.00,,---,0.00,VWS V14.01,2013-03-05 23:17:00,
2013-03-05 17:22:00,29.3,19.4,30.18,North,0,3.1,3.1,66,0.00,,---,0.00,VWS V14.01,2013-03-05 23:22:00,
2013-03-05 17:27:00,29.3,19.7,30.18,NE,45,3.6,3.8,67,0.00,,---,0.00,VWS V14.01,2013-03-05 23:27:00,
2013-03-05 17:32:00,28.9,19.4,30.18,NNE,22,2.0,3.8,67,0.00,,---,0.00,VWS V14.01,2013-03-05 23:32:00,
2013-03-05 17:38:00,28.9,19.4,30.18,NNE,22,2.9,3.4,67,0.00,,---,0.00,VWS V14.01,2013-03-05 23:38:00,
2013-03-05 17:43:00,28.6,19.0,30.18,NW,315,2.7,4.3,67,0.00,,---,0.00,VWS V14.01,2013-03-05 23:43:00,
2013-03-05 17:49:00,28.6,19.4,30.18,NNE,22,2.2,2.2,68,0.00,,---,0.00,VWS V14.01,2013-03-05 23:49:00,
2013-03-05 17:54:00,28.2,19.4,30.18,NNW,338,1.6,2.5,69,0.00,,---,0.00,VWS V14.01,2013-03-05 23:54:00,
2013-03-05 17:59:00,28.0,19.2,30.18,NNE,22,2.0,3.6,69,0.00,,---,0.00,VWS V14.01,2013-03-05 23:59:00,
2013-03-05 18:04:00,27.7,19.2,30.18,NW,315,2.5,2.7,70,0.00,,---,0.00,VWS V14.01,2013-03-06 00:04:00,
2013-03-05 18:10:00,27.3,19.2,30.18,NNE,22,2.5,4.7,71,0.00,,---,0.00,VWS V14.01,2013-03-06 00:10:00,
2013-03-05 18:15:00,27.1,19.0,30.21,NNW,338,3.6,3.6,71,0.00,,---,0.00,VWS V14.01,2013-03-06 00:15:00,
2013-03-05 18:20:00,27.0,18.8,30.21,NNW,338,1.3,3.1,71,0.00,,---,0.00,VWS V14.01,2013-03-06 00:20:00,
2013-03-05 18:25:00,27.0,19.1,30.21,North,0,0.0,0.9,72,0.00,,---,0.00,VWS V14.01,2013-03-06 00:25:00,
2013-03-05 18:31:00,26.8,19.0,30.21,North,0,1.1,2.2,72,0.00,,---,0.00,VWS V14.01,2013-03-06 00:31:00,
2013-03-05 18:36:00,26.8,19.3,30.21,NW,315,2.5,3.1,73,0.00,,---,0.00,VWS V14.01,2013-03-06 00:36:00,
2013-03-05 18:42:00,26.6,19.1,30.21,WSW,248,2.0,2.0,73,0.00,,---,0.00,VWS V14.01,2013-03-06 00:42:00,
2013-03-05 18:48:00,26.4,19.6,30.21,NNE,22,1.6,4.3,75,0.00,,---,0.00,VWS V14.01,2013-03-06 00:48:00,
2013-03-05 18:54:00,26.6,20.4,30.21,West,270,2.5,3.4,77,0.00,,---,0.00,VWS V14.01,2013-03-06 00:54:00,
2013-03-05 19:00:00,26.6,20.4,30.21,North,0,0.9,3.1,77,0.00,,---,0.00,VWS V14.01,2013-03-06 01:00:00,
2013-03-05 19:06:00,26.6,20.7,30.21,NNE,22,1.6,2.5,78,0.00,,---,0.00,VWS V14.01,2013-03-06 01:06:00,
2013-03-05 19:11:00,26.6,20.7,30.21,North,0,3.1,3.1,78,0.00,,---,0.00,VWS V14.01,2013-03-06 01:11:00,
2013-03-05 19:17:00,26.4,20.5,30.21,NNE,22,2.9,2.9,78,0.00,,---,0.00,VWS V14.01,2013-03-06 01:17:00,
2013-03-05 19:22:00,26.4,20.5,30.21,NNW,338,2.5,2.7,78,0.00,,---,0.00,VWS V14.01,2013-03-06 01:22:00,
2013-03-05 19:28:00,26.2,20.3,30.21,North,0,4.5,4.5,78,0.00,,---,0.00,VWS V14.01,2013-03-06 01:28:00,
2013-03-05 19:34:00,26.2,20.3,30.21,NNW,338,2.9,4.5,78,0.00,,---,0.00,VWS V14.01,2013-03-06 01:34:00,
2013-03-05 19:39:00,26.4,20.8,30.21,NNW,338,6.7,6.7,79,0.00,,---,0.00,VWS V14.01,2013-03-06 01:39:00,
2013-03-05 19:44:00,26.4,20.8,30.21,NNW,338,2.0,2.5,79,0.00,,---,0.00,VWS V14.01,2013-03-06 01:44:00,
2013-03-05 19:49:00,26.4,20.8,30.21,NNW,338,4.3,4.3,79,0.00,,---,0.00,VWS V14.01,2013-03-06 01:49:00,
2013-03-05 19:55:00,26.4,21.1,30.21,NNW,338,1.6,2.9,80,0.00,,---,0.00,VWS V14.01,2013-03-06 01:55:00,
2013-03-05 20:00:00,26.6,21.3,30.24,NW,315,5.8,5.8,80,0.00,,---,0.00,VWS V14.01,2013-03-06 02:00:00,
2013-03-05 20:05:00,26.6,21.3,30.24,North,0,3.4,4.5,80,0.00,,---,0.00,VWS V14.01,2013-03-06 02:05:00,
2013-03-05 20:10:00,26.6,21.3,30.24,ENE,68,4.7,4.7,80,0.00,,---,0.00,VWS V14.01,2013-03-06 02:10:00,
2013-03-05 20:16:00,26.6,21.3,30.21,NNW,338,4.7,4.7,80,0.00,,---,0.00,VWS V14.01,2013-03-06 02:16:00,
2013-03-05 20:21:00,26.4,21.1,30.21,NE,45,2.7,3.6,80,0.00,,---,0.00,VWS V14.01,2013-03-06 02:21:00,
2013-03-05 20:27:00,26.2,20.6,30.24,NW,315,4.0,4.0,79,0.00,,---,0.00,VWS V14.01,2013-03-06 02:27:00,
2013-03-05 20:33:00,26.1,20.1,30.24,NNE,22,2.9,6.0,78,0.00,,---,0.00,VWS V14.01,2013-03-06 02:33:00,
2013-03-05 20:38:00,26.1,19.9,30.24,ENE,68,2.9,4.3,77,0.00,,---,0.00,VWS V14.01,2013-03-06 02:38:00,
2013-03-05 20:43:00,26.1,19.9,30.24,North,0,2.9,2.9,77,0.00,,---,0.00,VWS V14.01,2013-03-06 02:43:00,
2013-03-05 20:48:00,25.9,19.7,30.24,NW,315,3.6,3.8,77,0.00,,---,0.00,VWS V14.01,2013-03-06 02:48:00,
2013-03-05 20:53:00,25.7,19.2,30.24,NNW,338,4.0,6.3,76,0.00,,---,0.00,VWS V14.01,2013-03-06 02:53:00,
2013-03-05 20:59:00,25.3,18.9,30.24,NNE,22,4.3,5.6,76,0.00,,---,0.00,VWS V14.01,2013-03-06 02:59:00,
2013-03-05 21:05:00,25.3,18.9,30.24,NNE,22,4.0,4.9,76,0.00,,---,0.00,VWS V14.01,2013-03-06 03:05:00,
2013-03-05 21:10:00,25.2,18.7,30.24,NNE,22,1.6,4.9,76,0.00,,---,0.00,VWS V14.01,2013-03-06 03:10:00,
2013-03-05 21:15:00,25.2,18.7,30.24,North,0,4.0,4.0,76,0.00,,---,0.00,VWS V14.01,2013-03-06 03:15:00,
2013-03-05 21:20:00,25.0,18.5,30.24,East,90,3.1,4.0,76,0.00,,---,0.00,VWS V14.01,2013-03-06 03:20:00,
2013-03-05 21:26:00,24.8,18.3,30.24,ENE,68,2.5,3.1,76,0.00,,---,0.00,VWS V14.01,2013-03-06 03:26:00,
2013-03-05 21:31:00,24.6,18.1,30.24,East,90,3.6,4.9,76,0.00,,---,0.00,VWS V14.01,2013-03-06 03:31:00,
2013-03-05 21:37:00,24.6,17.8,30.24,NNW,338,4.3,5.4,75,0.00,,---,0.00,VWS V14.01,2013-03-06 03:37:00,
2013-03-05 21:42:00,24.4,17.7,30.27,NW,315,2.9,4.7,75,0.00,,---,0.00,VWS V14.01,2013-03-06 03:42:00,
2013-03-05 21:48:00,24.3,17.5,30.27,North,0,4.0,5.6,75,0.00,,---,0.00,VWS V14.01,2013-03-06 03:48:00,
2013-03-05 21:53:00,24.1,17.0,30.27,NE,45,3.6,3.6,74,0.00,,---,0.00,VWS V14.01,2013-03-06 03:53:00,
2013-03-05 21:58:00,23.9,17.1,30.27,NW,315,1.6,2.2,75,0.00,,---,0.00,VWS V14.01,2013-03-06 03:58:00,
2013-03-05 22:03:00,23.7,17.0,30.27,North,0,4.3,4.3,75,0.00,,---,0.00,VWS V14.01,2013-03-06 04:03:00,
2013-03-05 22:09:00,23.5,16.8,30.27,NNW,338,2.5,3.6,75,0.00,,---,0.00,VWS V14.01,2013-03-06 04:09:00,
2013-03-05 22:14:00,23.4,16.6,30.27,NNE,22,4.0,4.0,75,0.00,,---,0.00,VWS V14.01,2013-03-06 04:14:00,
2013-03-05 22:19:00,23.2,16.8,30.27,NW,315,2.0,4.9,76,0.00,,---,0.00,VWS V14.01,2013-03-06 04:19:00,
2013-03-05 22:24:00,23.0,16.6,30.27,North,0,1.6,3.6,76,0.00,,---,0.00,VWS V14.01,2013-03-06 04:24:00,
2013-03-05 22:30:00,22.8,16.4,30.27,North,0,2.9,3.4,76,0.00,,---,0.00,VWS V14.01,2013-03-06 04:30:00,
2013-03-05 22:36:00,22.6,16.2,30.27,NNE,22,0.0,1.6,76,0.00,,---,0.00,VWS V14.01,2013-03-06 04:36:00,
2013-03-05 22:41:00,22.5,16.0,30.27,NE,45,2.2,2.2,76,0.00,,---,0.00,VWS V14.01,2013-03-06 04:41:00,
2013-03-05 22:46:00,22.3,15.9,30.27,NNW,338,2.2,2.2,76,0.00,,---,0.00,VWS V14.01,2013-03-06 04:46:00,
2013-03-05 22:51:00,21.9,15.5,30.27,North,0,3.6,3.6,76,0.00,,---,0.00,VWS V14.01,2013-03-06 04:51:00,
2013-03-05 22:57:00,21.7,15.4,30.27,North,0,1.6,3.1,76,0.00,,---,0.00,VWS V14.01,2013-03-06 04:57:00,
2013-03-05 23:00:00,21.6,15.2,30.27,NNW,338,2.7,3.1,76,0.00,,---,0.00,VWS V14.01,2013-03-06 05:00:00,
2013-03-05 23:02:00,21.6,15.2,30.27,NNE,22,0.0,2.2,76,0.00,,---,0.00,VWS V14.01,2013-03-06 05:02:00,
2013-03-05 23:04:00,21.6,15.2,30.27,NNW,338,1.1,2.2,76,0.00,,---,0.00,VWS V14.01,2013-03-06 05:04:00,
2013-03-05 23:07:00,21.6,15.2,30.27,NW,315,4.0,4.0,76,0.00,,---,0.00,VWS V14.01,2013-03-06 05:07:00,
2013-03-05 23:12:00,21.6,15.2,30.27,WNW,292,2.0,2.0,76,0.00,,---,0.00,VWS V14.01,2013-03-06 05:12:00,
2013-03-05 23:18:00,21.6,15.5,30.27,NNE,22,4.9,4.9,77,0.00,,---,0.00,VWS V14.01,2013-03-06 05:18:00,
2013-03-05 23:23:00,21.7,15.6,30.27,NNE,22,2.9,4.0,77,0.00,,---,0.00,VWS V14.01,2013-03-06 05:23:00,
2013-03-05 23:29:00,21.7,15.6,30.30,NNW,338,4.0,5.6,77,0.00,,---,0.00,VWS V14.01,2013-03-06 05:29:00,
2013-03-05 23:34:00,21.9,15.8,30.30,ENE,68,0.9,3.1,77,0.00,,---,0.00,VWS V14.01,2013-03-06 05:34:00,
2013-03-05 23:39:00,21.9,16.1,30.30,North,0,4.3,4.3,78,0.00,,---,0.00,VWS V14.01,2013-03-06 05:39:00,
2013-03-05 23:44:00,22.1,16.3,30.30,North,0,2.0,3.6,78,0.00,,---,0.00,VWS V14.01,2013-03-06 05:44:00,
2013-03-05 23:49:00,22.1,16.3,30.30,NE,45,2.5,4.3,78,0.00,,---,0.00,VWS V14.01,2013-03-06 05:49:00,
2013-03-05 23:54:00,22.1,16.0,30.30,NNW,338,1.1,1.3,77,0.00,,---,0.00,VWS V14.01,2013-03-06 05:54:00,